Beaufort, NC

4:13 PM EDT on June 26, 2017 (GMT -0400)
Smith

Weather History for KMRH - June, 2013

Change the Weather History Date:

Saturday, June 15, 2013

  Actual Average Record
Temperature  
Mean Temperature 70 °F -  
Max Temperature 82 °F 83 °F 99 °F (1981)
Min Temperature 59 °F 67 °F 53 °F (1978)
Cooling Degree Days 6    
Growing Degree Days 20 (Base 50)    
Moisture  
Dew Point 58 °F    
Average Humidity 61    
Maximum Humidity 93    
Minimum Humidity 42    
Precipitation  
Precipitation 0.00 in - - ()
Sea Level Pressure  
Sea Level Pressure 30.09 in    
Wind  
Wind Speed 5 mph (WSW)    
Max Wind Speed 15 mph    
Max Gust Speed -    
Visibility 9 miles    
Events      
Averages and records for this station are not official NWS values.
T = Trace of Precipitation, MM = Missing Value Source: NWS Daily Summary

Daily Weather History Graph

Daily Weather History Graph

Search for Another Location

Airport or City:

Trip Planner

Search our weather history database for the weather conditions in past years. The results will help you decide how hot, cold, wet, or windy it might be!

Date:

Astronomy

Jun. 15, 2013 Rise Set
Actual Time 5:52 AM EDT 8:21 PM EDT
Civil Twilight 5:23 AM EDT 8:51 PM EDT
Nautical Twilight 4:46 AM EDT 9:27 PM EDT
Astronomical Twilight 4:06 AM EDT 10:07 PM EDT
Moon 12:11 PM EDT (6/15) 12:09 AM EDT (6/15)
Length of Visible Light 15h 27m
Length of Day
14h 28m
Waxing Crescent, 39% of the Moon is Illuminated
Jun 15
Waxing Crescent
Jun 16
First Quarter
Jun 23
Full
Jun 30
Last Quarter
Jul 8
New

Hourly Weather History & Observations

Time (EDT) Temp. Heat Index Dew Point Humidity Pressure Visibility Wind Dir Wind Speed Gust Speed Precip Events Conditions
12:58 AM 62.1 °F - 55.0 °F 78% 30.03 in 10.0 mi Calm Calm - N/A   Clear
1:58 AM 60.1 °F - 55.0 °F 83% 30.03 in 10.0 mi Calm Calm - N/A   Clear
2:58 AM 60.1 °F - 55.9 °F 86% 30.04 in 10.0 mi Calm Calm - N/A   Clear
3:58 AM 59.0 °F - 55.9 °F 90% 30.04 in 10.0 mi Calm Calm - N/A   Clear
4:58 AM 60.1 °F - 57.9 °F 93% 30.03 in 10.0 mi Calm Calm - N/A   Clear
5:58 AM 60.1 °F - 57.9 °F 93% 30.05 in 10.0 mi Calm Calm - N/A   Clear
6:58 AM 66.0 °F - 63.0 °F 90% 30.06 in 10.0 mi WNW 3.5 mph - N/A   Clear
7:58 AM 72.0 °F - 60.1 °F 66% 30.09 in 10.0 mi West 6.9 mph - N/A   Clear
8:58 AM 75.0 °F - 57.0 °F 53% 30.11 in 10.0 mi West 6.9 mph - N/A   Clear
9:58 AM 77.0 °F - 55.0 °F 47% 30.12 in 10.0 mi WNW 6.9 mph - N/A   Clear
10:58 AM 79.0 °F - 57.9 °F 48% 30.12 in 10.0 mi WNW 5.8 mph - N/A   Clear
11:58 AM 81.0 °F 81.0 °F 57.0 °F 44% 30.12 in 5.0 mi Variable 3.5 mph - N/A   Haze
12:21 PM 80.6 °F 80.5 °F 55.4 °F 42% 30.12 in 2.5 mi WNW 4.6 mph - N/A   Haze
12:32 PM 82.4 °F 82.0 °F 57.2 °F 42% 30.11 in 4.0 mi NNW 5.8 mph - N/A   Haze
12:58 PM 81.0 °F 81.7 °F 61.0 °F 50% 30.11 in 10.0 mi SW 4.6 mph - N/A   Partly Cloudy
1:58 PM 81.0 °F 81.6 °F 60.1 °F 49% 30.09 in 10.0 mi SSW 12.7 mph - N/A   Clear
2:58 PM 81.0 °F 81.3 °F 59.0 °F 47% 30.09 in 10.0 mi SSW 13.8 mph - N/A   Clear
3:58 PM 80.1 °F 80.2 °F 55.9 °F 43% 30.09 in 10.0 mi SSW 13.8 mph - N/A   Partly Cloudy
4:58 PM 80.1 °F 80.6 °F 57.9 °F 47% 30.08 in 10.0 mi SSW 12.7 mph - N/A   Partly Cloudy
5:58 PM 79.0 °F - 57.9 °F 48% 30.09 in 10.0 mi SSW 15.0 mph - N/A   Clear
6:58 PM 78.1 °F - 55.9 °F 46% 30.09 in 10.0 mi SSW 15.0 mph - N/A   Clear
7:58 PM 75.9 °F - 59.0 °F 56% 30.10 in 10.0 mi SW 12.7 mph - N/A   Clear
8:58 PM 75.9 °F - 59.0 °F 56% 30.10 in 10.0 mi SW 13.8 mph - N/A   Clear
9:58 PM 75.0 °F - 59.0 °F 57% 30.12 in 10.0 mi SW 13.8 mph - N/A   Clear
10:58 PM 75.0 °F - 60.1 °F 60% 30.12 in 10.0 mi SW 11.5 mph - N/A   Clear
11:58 PM 75.0 °F - 62.1 °F 64% 30.12 in 10.0 mi SW 11.5 mph - N/A   Clear